• In Portugal
  • List of Countries
  • For 7 days
  • Water Temperature
  • Satellite Maps
  • Weather Map
  • Weather Widgets
  • user-avatar
    Login

    Hourly Weather Ischgl

    Today, 27 May, Sunday

    Time Temperature Precipitation Wind Pressure Humidity
    00:00 +7°C° 0.1 mm 1 mps 579 mmHg 82%
    01:00 +7°C° 0.1 mm 1 mps 579 mmHg 82%
    02:00 +7°C° 0.1 mm 1 mps 578 mmHg 81%
    03:00 +6°C° 0.1 mm 1 mps 578 mmHg 80%
    04:00 +6°C° 0.1 mm 1 mps 578 mmHg 80%
    05:00 +7°C° 0.1 mm 1 mps 579 mmHg 77%
    06:00 +9°C° 0.1 mm 1 mps 579 mmHg 74%
    07:00 +10°C° 0.1 mm 1 mps 580 mmHg 71%
    08:00 +11°C° 0.1 mm 1 mps 580 mmHg 64%
    09:00 +13°C° 0.1 mm 1 mps 581 mmHg 56%
    10:00 +14°C° 0.1 mm 1 mps 582 mmHg 49%
    11:00 +15°C° 0.4 mm 1 mps 582 mmHg 48%
    12:00 +15°C° 0.4 mm 1 mps 582 mmHg 46%
    13:00 +16°C° 0.4 mm 1 mps 582 mmHg 45%
    14:00 +15°C° 0.8 mm 1 mps 582 mmHg 48%
    15:00 +15°C° 0.8 mm 1 mps 581 mmHg 52%
    16:00 +14°C° 0.8 mm 1 mps 580 mmHg 56%
    17:00 +13°C° 0.7 mm 1 mps 580 mmHg 64%
    18:00 +12°C° 0.7 mm 1 mps 580 mmHg 71%
    19:00 +10°C° 0.7 mm 1 mps 579 mmHg 78%
    20:00 +10°C° 0.2 mm 1 mps 579 mmHg 79%
    21:00 +9°C° 0.2 mm 1 mps 579 mmHg 80%
    22:00 +8°C° 0.2 mm 1 mps 578 mmHg 80%
    23:00 +6°C° 0 mm 2 mps 578 mmHg 80%

    Tomorrow, 28 May, Monday

    Time Temperature Precipitation Wind Pressure Humidity
    00:00 +6°C° 0 mm 2 mps 578 mmHg 79%
    01:00 +6°C° 0 mm 2 mps 578 mmHg 79%
    02:00 +5°C° 0 mm 2 mps 578 mmHg 78%
    03:00 +5°C° 0 mm 2 mps 577 mmHg 77%
    04:00 +5°C° 0 mm 2 mps 577 mmHg 77%
    05:00 +6°C° 0 mm 2 mps 578 mmHg 74%
    06:00 +7°C° 0 mm 2 mps 578 mmHg 71%
    07:00 +10°C° 0 mm 1 mps 579 mmHg 68%
    08:00 +10°C° 0.1 mm 2 mps 580 mmHg 61%
    09:00 +13°C° 0.1 mm 2 mps 580 mmHg 54%
    10:00 +15°C° 0.1 mm 2 mps 581 mmHg 47%
    11:00 +15°C° 0.3 mm 2 mps 581 mmHg 46%
    12:00 +16°C° 0.3 mm 2 mps 582 mmHg 44%
    13:00 +17°C° 0.3 mm 2 mps 582 mmHg 43%
    14:00 +16°C° 0.1 mm 2 mps 581 mmHg 46%
    15:00 +16°C° 0.1 mm 2 mps 581 mmHg 49%
    16:00 +15°C° 0.1 mm 2 mps 580 mmHg 51%
    17:00 +14°C° 0.2 mm 2 mps 580 mmHg 59%
    18:00 +13°C° 0.2 mm 2 mps 579 mmHg 66%
    19:00 +12°C° 0.2 mm 2 mps 579 mmHg 74%
    20:00 +10°C° 0 mm 2 mps 578 mmHg 78%
    21:00 +8°C° 0 mm 2 mps 578 mmHg 82%
    22:00 +7°C° 0 mm 2 mps 577 mmHg 86%
    23:00 +7°C° 0 mm 3 mps 577 mmHg 86%

    Day after tomorrow, 29 May, Tuesday

    Time Temperature Precipitation Wind Pressure Humidity
    00:00 +7°C° 0 mm 3 mps 577 mmHg 86%
    01:00 +5°C° 0 mm 3 mps 577 mmHg 85%
    02:00 +5°C° 0 mm 3 mps 577 mmHg 86%
    03:00 +6°C° 0 mm 2 mps 576 mmHg 86%
    04:00 +5°C° 0 mm 2 mps 576 mmHg 86%
    05:00 +6°C° 0 mm 2 mps 577 mmHg 82%
    06:00 +7°C° 0 mm 2 mps 577 mmHg 78%
    07:00 +9°C° 0 mm 2 mps 578 mmHg 74%
    08:00 +10°C° 0.1 mm 2 mps 578 mmHg 68%
    09:00 +13°C° 0.1 mm 2 mps 579 mmHg 62%
    10:00 +14°C° 0.1 mm 2 mps 580 mmHg 56%
    11:00 +14°C° 0.8 mm 2 mps 580 mmHg 58%
    12:00 +14°C° 0.8 mm 2 mps 579 mmHg 61%
    13:00 +14°C° 0.8 mm 2 mps 579 mmHg 63%
    14:00 +14°C° 1.6 mm 2 mps 579 mmHg 66%
    15:00 +13°C° 1.6 mm 2 mps 578 mmHg 69%
    16:00 +13°C° 1.6 mm 1 mps 578 mmHg 72%
    17:00 +12°C° 0.6 mm 1 mps 577 mmHg 76%
    18:00 +12°C° 0.6 mm 1 mps 577 mmHg 79%
    19:00 +11°C° 0.6 mm 1 mps 577 mmHg 82%
    20:00 +10°C° 0.3 mm 1 mps 576 mmHg 86%
    21:00 +8°C° 0.3 mm 1 mps 576 mmHg 89%
    22:00 +7°C° 0.3 mm 1 mps 575 mmHg 92%
    23:00 +6°C° 0.1 mm 1 mps 575 mmHg 92%

    30 May, Wednesday

    Time Temperature Precipitation Wind Pressure Humidity
    00:00 +5°C° 0.1 mm 2 mps 575 mmHg 92%
    01:00 +5°C° 0.1 mm 2 mps 574 mmHg 91%
    02:00 +4°C° 0 mm 2 mps 574 mmHg 90%
    03:00 +4°C° 0 mm 2 mps 574 mmHg 89%
    04:00 +4°C° 0 mm 2 mps 573 mmHg 87%
    05:00 +6°C° 0 mm 1 mps 574 mmHg 82%
    06:00 +8°C° 0 mm 1 mps 575 mmHg 76%
    07:00 +10°C° 0 mm 1 mps 576 mmHg 71%
    08:00 +11°C° 0 mm 1 mps 577 mmHg 63%
    09:00 +13°C° 0 mm 1 mps 577 mmHg 55%
    10:00 +15°C° 0 mm 1 mps 578 mmHg 47%
    11:00 +15°C° 0.4 mm 1 mps 578 mmHg 48%
    12:00 +16°C° 0.4 mm 2 mps 578 mmHg 49%
    13:00 +16°C° 0.4 mm 2 mps 578 mmHg 50%
    14:00 +15°C° 1 mm 2 mps 578 mmHg 55%
    15:00 +15°C° 1 mm 2 mps 577 mmHg 60%
    16:00 +14°C° 1 mm 2 mps 577 mmHg 65%
    17:00 +13°C° 1.5 mm 2 mps 576 mmHg 70%
    18:00 +12°C° 1.5 mm 1 mps 576 mmHg 76%
    19:00 +11°C° 1.5 mm 1 mps 576 mmHg 81%
    20:00 +9°C° 0.3 mm 1 mps 575 mmHg 84%
    21:00 +8°C° 0.3 mm 1 mps 575 mmHg 88%
    22:00 +7°C° 0.3 mm 1 mps 574 mmHg 91%
    23:00 +6°C° 0 mm 1 mps 574 mmHg 91%

    31 May, Thursday

    Time Temperature Precipitation Wind Pressure Humidity
    00:00 +6°C° 0 mm 1 mps 574 mmHg 91%
    01:00 +6°C° 0 mm 1 mps 574 mmHg 92%
    02:00 +5°C° 0.1 mm 1 mps 574 mmHg 92%
    03:00 +5°C° 0.1 mm 1 mps 573 mmHg 91%
    04:00 +4°C° 0.1 mm 1 mps 573 mmHg 91%
    05:00 +6°C° 0 mm 1 mps 574 mmHg 87%
    06:00 +8°C° 0 mm 1 mps 575 mmHg 82%
    07:00 +9°C° 0 mm 1 mps 576 mmHg 78%
    08:00 +11°C° 0.2 mm 1 mps 576 mmHg 72%
    09:00 +12°C° 0.2 mm 1 mps 577 mmHg 67%
    10:00 +14°C° 0.2 mm 1 mps 578 mmHg 61%
    11:00 +14°C° 0.5 mm 1 mps 578 mmHg 59%
    12:00 +15°C° 0.5 mm 1 mps 578 mmHg 57%
    13:00 +16°C° 0.5 mm 2 mps 578 mmHg 55%
    14:00 +15°C° 1.4 mm 2 mps 578 mmHg 60%
    15:00 +14°C° 1.4 mm 2 mps 577 mmHg 64%
    16:00 +13°C° 1.4 mm 2 mps 577 mmHg 69%
    17:00 +13°C° 1.3 mm 2 mps 576 mmHg 74%
    18:00 +12°C° 1.3 mm 1 mps 576 mmHg 79%
    19:00 +11°C° 1.3 mm 1 mps 576 mmHg 83%
    20:00 +9°C° 0.8 mm 1 mps 576 mmHg 87%
    21:00 +8°C° 0.8 mm 1 mps 575 mmHg 91%
    22:00 +7°C° 0.8 mm 1 mps 575 mmHg 95%
    23:00 +6°C° 0.5 mm 1 mps 575 mmHg 96%

    1 June, Friday

    Time Temperature Precipitation Wind Pressure Humidity
    00:00 +6°C° 0.5 mm 1 mps 575 mmHg 96%
    01:00 +6°C° 0.5 mm 1 mps 575 mmHg 96%
    02:00 +6°C° 0.3 mm 1 mps 575 mmHg 96%
    03:00 +6°C° 0.3 mm 1 mps 575 mmHg 96%
    04:00 +6°C° 0.3 mm 1 mps 575 mmHg 96%
    05:00 +7°C° 0.2 mm 1 mps 576 mmHg 94%
    06:00 +7°C° 0.2 mm 1 mps 576 mmHg 92%
    07:00 +8°C° 0.2 mm 1 mps 577 mmHg 90%
    08:00 +9°C° 0.1 mm 1 mps 577 mmHg 85%
    09:00 +10°C° 0.1 mm 1 mps 578 mmHg 81%
    10:00 +11°C° 0.1 mm 1 mps 578 mmHg 76%
    11:00 +12°C° 0.4 mm 1 mps 579 mmHg 71%
    12:00 +13°C° 0.4 mm 2 mps 579 mmHg 66%
    13:00 +14°C° 0.4 mm 2 mps 579 mmHg 61%
    14:00 +13°C° 1 mm 2 mps 579 mmHg 64%
    15:00 +13°C° 1 mm 2 mps 579 mmHg 66%
    16:00 +13°C° 1 mm 2 mps 579 mmHg 68%
    17:00 +12°C° 1.3 mm 1 mps 578 mmHg 74%
    18:00 +11°C° 1.3 mm 1 mps 578 mmHg 80%
    19:00 +10°C° 1.3 mm 1 mps 578 mmHg 87%
    20:00 +9°C° 0.9 mm 1 mps 578 mmHg 88%
    21:00 +7°C° 0.9 mm 0 mps 577 mmHg 90%
    22:00 +6°C° 0.9 mm 0 mps 577 mmHg 92%
    23:00 +6°C° 0.4 mm 0 mps 577 mmHg 92%
    Show more